Time,TemperatureF,DewpointF,PressureIn,WindDirection,WindDirectionDegrees,WindSpeedMPH,WindSpeedGustMPH,Humidity,HourlyPrecipIn,Conditions,Clouds,dailyrainin,SoftwareType,DateUTC
2013-04-16 00:03:00,58.6,53.8,29.86,South,181,2.0,6.0,84,0.00,,,0.00,WeatherCatV1.15B25,2013-04-16 04:03:00,
2013-04-16 00:08:00,59.0,53.8,29.86,SSE,160,1.0,5.0,83,0.00,,,0.00,WeatherCatV1.15B25,2013-04-16 04:08:00,
2013-04-16 00:13:00,59.5,53.7,29.86,SE,136,3.0,6.0,81,0.00,,,0.00,WeatherCatV1.15B25,2013-04-16 04:13:00,
2013-04-16 00:18:00,60.1,53.9,29.86,SSE,162,7.0,7.0,80,0.00,,,0.00,WeatherCatV1.15B25,2013-04-16 04:18:00,
2013-04-16 00:23:00,60.4,53.9,29.86,WSW,241,0.0,10.0,79,0.00,,,0.00,WeatherCatV1.15B25,2013-04-16 04:23:00,
2013-04-16 00:28:00,60.5,53.6,29.86,SSW,192,3.0,11.0,78,0.00,,,0.00,WeatherCatV1.15B25,2013-04-16 04:28:00,
2013-04-16 00:33:00,60.7,53.4,29.84,SE,142,5.0,10.0,77,0.00,,,0.00,WeatherCatV1.15B25,2013-04-16 04:33:00,
2013-04-16 00:38:00,60.7,53.4,29.84,South,172,3.0,11.0,77,0.00,,,0.00,WeatherCatV1.15B25,2013-04-16 04:38:00,
2013-04-16 00:43:00,60.7,53.4,29.84,South,190,5.0,10.0,77,0.00,,,0.00,WeatherCatV1.15B25,2013-04-16 04:43:00,
2013-04-16 00:48:00,60.7,53.4,29.84,South,170,2.0,10.0,77,0.00,,,0.00,WeatherCatV1.15B25,2013-04-16 04:48:00,
2013-04-16 00:53:00,60.7,53.4,29.84,SSE,154,2.0,15.0,77,0.00,,,0.00,WeatherCatV1.15B25,2013-04-16 04:53:00,
2013-04-16 00:58:00,60.9,53.6,29.84,South,190,11.0,11.0,77,0.00,,,0.00,WeatherCatV1.15B25,2013-04-16 04:58:00,
2013-04-16 01:03:00,60.9,53.3,29.84,South,191,3.0,11.0,76,0.00,,,0.00,WeatherCatV1.15B25,2013-04-16 05:03:00,
2013-04-16 01:08:00,61.0,53.4,29.84,South,185,3.0,14.0,76,0.00,,,0.00,WeatherCatV1.15B25,2013-04-16 05:08:00,
2013-04-16 01:13:00,60.9,53.3,29.84,SE,144,6.0,14.0,76,0.00,,,0.00,WeatherCatV1.15B25,2013-04-16 05:13:00,
2013-04-16 01:18:00,60.9,53.3,29.85,North,5,0.0,15.0,76,0.00,,,0.00,WeatherCatV1.15B25,2013-04-16 05:18:00,
2013-04-16 01:23:00,60.9,53.3,29.85,SSW,203,10.0,10.0,76,0.00,,,0.00,WeatherCatV1.15B25,2013-04-16 05:23:00,
2013-04-16 01:28:00,60.9,53.3,29.85,South,173,4.0,10.0,76,0.00,,,0.00,WeatherCatV1.15B25,2013-04-16 05:28:00,
2013-04-16 01:33:00,60.7,53.1,29.84,SSE,166,4.0,12.0,76,0.00,,,0.00,WeatherCatV1.15B25,2013-04-16 05:33:00,
2013-04-16 01:38:00,60.9,53.3,29.84,SSW,211,1.0,13.0,76,0.00,,,0.00,WeatherCatV1.15B25,2013-04-16 05:38:00,
2013-04-16 01:43:00,60.7,53.1,29.84,SSE,157,2.0,7.0,76,0.00,,,0.00,WeatherCatV1.15B25,2013-04-16 05:43:00,
2013-04-16 01:48:00,60.5,53.2,29.84,South,191,0.0,10.0,77,0.00,,,0.00,WeatherCatV1.15B25,2013-04-16 05:48:00,
2013-04-16 01:53:00,60.4,53.5,29.84,South,184,5.0,5.0,78,0.00,,,0.00,WeatherCatV1.15B25,2013-04-16 05:53:00,
2013-04-16 01:58:00,60.4,53.2,29.84,South,191,0.0,1.0,77,0.00,,,0.00,WeatherCatV1.15B25,2013-04-16 05:58:00,
2013-04-16 02:03:00,60.2,53.3,29.84,WSW,251,3.0,4.0,78,0.00,,,0.00,WeatherCatV1.15B25,2013-04-16 06:03:00,
2013-04-16 02:08:00,59.8,53.6,29.84,WNW,283,1.0,4.0,80,0.00,,,0.00,WeatherCatV1.15B25,2013-04-16 06:08:00,
2013-04-16 02:13:00,59.5,53.7,29.84,WNW,283,0.0,3.0,81,0.00,,,0.00,WeatherCatV1.15B25,2013-04-16 06:13:00,
2013-04-16 02:18:00,59.0,53.8,29.86,WNW,283,0.0,1.0,83,0.00,,,0.00,WeatherCatV1.15B25,2013-04-16 06:18:00,
2013-04-16 02:23:00,58.7,53.9,29.86,WNW,283,2.0,3.0,84,0.00,,,0.00,WeatherCatV1.15B25,2013-04-16 06:23:00,
2013-04-16 02:28:00,58.4,53.9,29.86,WNW,283,2.0,4.0,85,0.00,,,0.00,WeatherCatV1.15B25,2013-04-16 06:28:00,
2013-04-16 02:33:00,58.3,54.1,29.87,WNW,283,4.0,4.0,86,0.00,,,0.00,WeatherCatV1.15B25,2013-04-16 06:33:00,
2013-04-16 02:38:00,58.1,53.9,29.87,NW,323,2.0,6.0,86,0.00,,,0.00,WeatherCatV1.15B25,2013-04-16 06:38:00,
2013-04-16 02:43:00,57.3,51.2,29.87,North,359,4.0,11.0,80,0.00,,,0.00,WeatherCatV1.15B25,2013-04-16 06:43:00,
2013-04-16 02:48:00,55.7,49.6,29.87,North,354,3.0,4.0,80,0.00,,,0.00,WeatherCatV1.15B25,2013-04-16 06:48:00,
2013-04-16 02:53:00,54.5,49.4,29.87,North,351,3.0,6.0,83,0.00,,,0.00,WeatherCatV1.15B25,2013-04-16 06:53:00,
2013-04-16 02:58:00,53.2,48.5,29.87,NNW,327,3.0,6.0,84,0.00,,,0.00,WeatherCatV1.15B25,2013-04-16 06:58:00,
2013-04-16 03:03:00,52.3,48.2,29.89,NNW,332,1.0,4.0,86,0.00,,,0.00,WeatherCatV1.15B25,2013-04-16 07:03:00,
2013-04-16 03:08:00,51.4,47.7,29.89,NNW,339,5.0,9.0,87,0.00,,,0.00,WeatherCatV1.15B25,2013-04-16 07:08:00,
2013-04-16 03:13:00,50.7,47.3,29.89,NNW,347,4.0,6.0,88,0.00,,,0.00,WeatherCatV1.15B25,2013-04-16 07:13:00,
2013-04-16 03:18:00,50.1,47.0,29.90,NNW,342,3.0,7.0,89,0.00,,,0.00,WeatherCatV1.15B25,2013-04-16 07:18:00,
2013-04-16 03:23:00,49.6,47.1,29.90,NNW,338,0.0,5.0,91,0.00,,,0.00,WeatherCatV1.15B25,2013-04-16 07:23:00,
2013-04-16 03:33:00,49.1,46.6,29.90,NNE,20,2.0,9.0,91,0.00,,,0.00,WeatherCatV1.15B25,2013-04-16 07:33:00,
2013-04-16 03:38:00,48.8,46.3,29.90,NNE,19,6.0,7.0,91,0.00,,,0.00,WeatherCatV1.15B25,2013-04-16 07:38:00,
2013-04-16 03:43:00,48.8,46.3,29.90,NNE,21,0.0,5.0,91,0.00,,,0.00,WeatherCatV1.15B25,2013-04-16 07:43:00,
2013-04-16 03:48:00,48.8,46.3,29.89,NNE,22,3.0,5.0,91,0.00,,,0.00,WeatherCatV1.15B25,2013-04-16 07:48:00,
2013-04-16 03:53:00,48.8,46.3,29.89,NNE,25,9.0,11.0,91,0.00,,,0.00,WeatherCatV1.15B25,2013-04-16 07:53:00,
2013-04-16 03:58:00,48.9,46.4,29.89,NNE,20,2.0,4.0,91,0.00,,,0.00,WeatherCatV1.15B25,2013-04-16 07:58:00,
2013-04-16 04:03:00,48.9,46.4,29.89,NNE,22,3.0,3.0,91,0.00,,,0.00,WeatherCatV1.15B25,2013-04-16 08:03:00,
2013-04-16 04:08:00,48.9,46.1,29.89,NE,46,2.0,6.0,90,0.00,,,0.00,WeatherCatV1.15B25,2013-04-16 08:08:00,
2013-04-16 04:13:00,48.9,46.4,29.89,NNE,23,0.0,6.0,91,0.00,,,0.00,WeatherCatV1.15B25,2013-04-16 08:13:00,
2013-04-16 04:18:00,48.9,46.4,29.88,NE,42,2.0,10.0,91,0.00,,,0.00,WeatherCatV1.15B25,2013-04-16 08:18:00,
2013-04-16 04:23:00,48.9,46.4,29.88,North,4,0.0,6.0,91,0.00,,,0.01,WeatherCatV1.15B25,2013-04-16 08:23:00,
2013-04-16 04:28:00,48.8,46.6,29.88,NE,39,2.0,4.0,92,0.00,,,0.01,WeatherCatV1.15B25,2013-04-16 08:28:00,
2013-04-16 04:33:00,48.6,46.7,29.88,NNE,30,7.0,7.0,93,0.00,,,0.01,WeatherCatV1.15B25,2013-04-16 08:33:00,
2013-04-16 04:38:00,48.6,46.7,29.88,NE,39,5.0,7.0,93,0.00,,,0.01,WeatherCatV1.15B25,2013-04-16 08:38:00,
2013-04-16 04:43:00,48.6,46.7,29.88,NNE,30,3.0,5.0,93,0.00,,,0.01,WeatherCatV1.15B25,2013-04-16 08:43:00,
2013-04-16 04:48:00,48.6,46.7,29.90,North,349,1.0,5.0,93,0.00,,,0.01,WeatherCatV1.15B25,2013-04-16 08:48:00,
2013-04-16 04:53:00,48.6,46.7,29.90,North,352,4.0,5.0,93,0.00,,,0.01,WeatherCatV1.15B25,2013-04-16 08:53:00,
2013-04-16 04:58:00,48.6,47.0,29.90,North,359,2.0,3.0,94,1.89,,,0.10,WeatherCatV1.15B25,2013-04-16 08:58:00,
2013-04-16 05:03:00,48.6,47.2,29.95,NNW,330,2.0,4.0,95,0.40,,,0.15,WeatherCatV1.15B25,2013-04-16 09:03:00,
2013-04-16 05:08:00,48.5,47.4,29.95,NNW,333,3.0,9.0,96,0.20,,,0.18,WeatherCatV1.15B25,2013-04-16 09:08:00,
2013-04-16 05:13:00,48.3,47.2,29.95,NNW,344,1.0,5.0,96,0.17,,,0.20,WeatherCatV1.15B25,2013-04-16 09:13:00,
2013-04-16 05:18:00,48.2,47.1,29.96,NW,318,3.0,3.0,96,0.08,,,0.21,WeatherCatV1.15B25,2013-04-16 09:18:00,
2013-04-16 05:23:00,48.0,47.2,29.96,NE,38,4.0,10.0,97,0.32,,,0.24,WeatherCatV1.15B25,2013-04-16 09:23:00,
2013-04-16 05:28:00,47.9,47.1,29.96,NNE,12,1.0,3.0,97,0.16,,,0.25,WeatherCatV1.15B25,2013-04-16 09:28:00,
2013-04-16 05:33:00,47.7,46.9,29.93,NNE,13,2.0,2.0,97,0.13,,,0.26,WeatherCatV1.15B25,2013-04-16 09:33:00,
2013-04-16 05:38:00,47.7,47.2,29.93,NE,35,1.0,6.0,98,0.08,,,0.27,WeatherCatV1.15B25,2013-04-16 09:38:00,
2013-04-16 05:43:00,47.6,47.1,29.93,NE,34,2.0,5.0,98,0.13,,,0.28,WeatherCatV1.15B25,2013-04-16 09:43:00,
2013-04-16 05:48:00,47.6,47.1,29.93,NE,34,2.0,3.0,98,0.09,,,0.29,WeatherCatV1.15B25,2013-04-16 09:48:00,
2013-04-16 05:53:00,47.6,47.1,29.93,NE,34,0.0,0.0,98,0.07,,,0.29,WeatherCatV1.15B25,2013-04-16 09:53:00,
2013-04-16 05:58:00,47.6,47.1,29.93,NNE,30,1.0,2.0,98,0.05,,,0.29,WeatherCatV1.15B25,2013-04-16 09:58:00,
2013-04-16 06:03:00,47.6,47.3,29.95,NNE,30,0.0,0.0,99,0.04,,,0.30,WeatherCatV1.15B25,2013-04-16 10:03:00,
2013-04-16 06:08:00,47.7,47.4,29.95,NNE,30,0.0,2.0,99,0.08,,,0.31,WeatherCatV1.15B25,2013-04-16 10:08:00,
2013-04-16 06:13:00,47.6,47.3,29.95,NNE,30,0.0,0.0,99,0.09,,,0.32,WeatherCatV1.15B25,2013-04-16 10:13:00,
2013-04-16 06:18:00,47.6,47.3,29.95,NNE,30,2.0,3.0,99,0.09,,,0.32,WeatherCatV1.15B25,2013-04-16 10:18:00,
2013-04-16 06:23:00,47.6,47.3,29.95,NNE,30,2.0,3.0,99,0.06,,,0.32,WeatherCatV1.15B25,2013-04-16 10:23:00,
2013-04-16 06:28:00,47.6,47.3,29.95,NNE,30,0.0,0.0,99,0.04,,,0.33,WeatherCatV1.15B25,2013-04-16 10:28:00,
2013-04-16 06:33:00,47.6,47.3,29.95,NNE,30,0.0,0.0,99,0.04,,,0.33,WeatherCatV1.15B25,2013-04-16 10:33:00,
2013-04-16 06:38:00,47.6,47.3,29.95,NNE,30,0.0,0.0,99,0.06,,,0.34,WeatherCatV1.15B25,2013-04-16 10:38:00,
2013-04-16 06:43:00,47.6,47.3,29.95,NNE,30,0.0,0.0,99,0.06,,,0.34,WeatherCatV1.15B25,2013-04-16 10:43:00,
2013-04-16 06:48:00,47.7,47.4,29.96,NNE,30,0.0,0.0,99,0.05,,,0.34,WeatherCatV1.15B25,2013-04-16 10:48:00,
2013-04-16 06:53:00,47.7,47.4,29.96,NNE,30,0.0,0.0,99,0.05,,,0.35,WeatherCatV1.15B25,2013-04-16 10:53:00,
2013-04-16 06:58:00,47.7,47.7,29.96,NNE,30,0.0,0.0,100,0.07,,,0.35,WeatherCatV1.15B25,2013-04-16 10:58:00,
2013-04-16 07:03:00,47.7,47.7,29.96,NNE,30,0.0,0.0,100,0.07,,,0.36,WeatherCatV1.15B25,2013-04-16 11:03:00,
2013-04-16 07:08:00,47.7,47.7,29.96,NNE,30,0.0,0.0,100,0.09,,,0.37,WeatherCatV1.15B25,2013-04-16 11:08:00,
2013-04-16 07:13:00,47.7,47.7,29.96,NNE,30,1.0,1.0,100,0.07,,,0.37,WeatherCatV1.15B25,2013-04-16 11:13:00,
2013-04-16 07:18:00,47.7,47.7,29.95,NNE,30,1.0,2.0,100,0.05,,,0.37,WeatherCatV1.15B25,2013-04-16 11:18:00,
2013-04-16 07:23:00,47.7,47.7,29.95,North,359,0.0,2.0,100,0.04,,,0.38,WeatherCatV1.15B25,2013-04-16 11:23:00,
2013-04-16 07:28:00,47.7,47.7,29.95,North,359,0.0,0.0,100,0.04,,,0.38,WeatherCatV1.15B25,2013-04-16 11:28:00,
2013-04-16 07:33:00,47.7,47.7,29.96,North,359,0.0,0.0,100,0.04,,,0.38,WeatherCatV1.15B25,2013-04-16 11:33:00,
2013-04-16 07:38:00,47.7,47.7,29.96,North,359,0.0,0.0,100,0.04,,,0.38,WeatherCatV1.15B25,2013-04-16 11:38:00,
2013-04-16 07:43:00,47.7,47.7,29.96,North,359,1.0,2.0,100,0.00,,,0.38,WeatherCatV1.15B25,2013-04-16 11:43:00,
2013-04-16 07:48:00,47.7,47.7,29.99,North,359,0.0,0.0,100,0.00,,,0.38,WeatherCatV1.15B25,2013-04-16 11:48:00,
2013-04-16 07:53:00,47.7,47.7,29.99,North,359,0.0,0.0,100,0.00,,,0.38,WeatherCatV1.15B25,2013-04-16 11:53:00,
2013-04-16 07:58:00,47.9,47.9,29.99,North,359,2.0,2.0,100,0.00,,,0.38,WeatherCatV1.15B25,2013-04-16 11:58:00,
2013-04-16 08:03:00,47.9,47.9,30.01,North,359,0.0,2.0,100,0.00,,,0.38,WeatherCatV1.15B25,2013-04-16 12:03:00,
2013-04-16 08:08:00,48.0,48.0,30.01,North,359,1.0,3.0,100,0.00,,,0.38,WeatherCatV1.15B25,2013-04-16 12:08:00,
2013-04-16 08:13:00,47.9,47.9,30.01,North,359,2.0,4.0,100,0.00,,,0.38,WeatherCatV1.15B25,2013-04-16 12:13:00,
2013-04-16 08:18:00,47.9,47.9,30.01,North,359,0.0,0.0,100,0.00,,,0.38,WeatherCatV1.15B25,2013-04-16 12:18:00,
2013-04-16 08:23:00,47.9,47.9,30.01,North,359,2.0,2.0,100,0.00,,,0.38,WeatherCatV1.15B25,2013-04-16 12:23:00,
2013-04-16 08:28:00,47.7,47.7,30.01,North,359,0.0,0.0,100,0.00,,,0.38,WeatherCatV1.15B25,2013-04-16 12:28:00,
2013-04-16 08:33:00,47.7,47.7,30.04,North,359,0.0,0.0,100,0.00,,,0.38,WeatherCatV1.15B25,2013-04-16 12:33:00,
2013-04-16 08:38:00,47.7,47.7,30.04,North,359,1.0,3.0,100,0.00,,,0.38,WeatherCatV1.15B25,2013-04-16 12:38:00,
2013-04-16 08:43:00,47.6,47.6,30.04,North,359,0.0,2.0,100,0.00,,,0.38,WeatherCatV1.15B25,2013-04-16 12:43:00,
2013-04-16 08:48:00,47.6,47.6,30.03,North,359,0.0,0.0,100,0.00,,,0.38,WeatherCatV1.15B25,2013-04-16 12:48:00,
2013-04-16 08:53:00,47.4,47.4,30.03,North,359,1.0,2.0,100,0.00,,,0.39,WeatherCatV1.15B25,2013-04-16 12:53:00,
2013-04-16 08:58:00,47.4,47.4,30.03,North,359,2.0,2.0,100,0.00,,,0.39,WeatherCatV1.15B25,2013-04-16 12:58:00,
2013-04-16 09:03:00,47.4,47.4,30.06,North,359,0.0,0.0,100,0.00,,,0.39,WeatherCatV1.15B25,2013-04-16 13:03:00,
2013-04-16 09:08:00,47.4,47.4,30.06,North,359,0.0,0.0,100,0.00,,,0.39,WeatherCatV1.15B25,2013-04-16 13:08:00,
2013-04-16 09:13:00,47.4,47.4,30.06,North,359,0.0,0.0,100,0.00,,,0.40,WeatherCatV1.15B25,2013-04-16 13:13:00,
2013-04-16 09:18:00,47.3,47.3,30.05,North,359,0.0,0.0,100,0.00,,,0.40,WeatherCatV1.15B25,2013-04-16 13:18:00,
2013-04-16 09:23:00,47.3,47.3,30.05,North,359,2.0,3.0,100,0.00,,,0.40,WeatherCatV1.15B25,2013-04-16 13:23:00,
2013-04-16 09:28:00,47.3,47.3,30.05,North,359,4.0,4.0,100,0.04,,,0.41,WeatherCatV1.15B25,2013-04-16 13:28:00,
2013-04-16 09:33:00,47.3,47.3,30.08,NNW,346,2.0,5.0,100,0.04,,,0.41,WeatherCatV1.15B25,2013-04-16 13:33:00,
2013-04-16 09:38:00,47.1,47.1,30.08,NNW,345,2.0,3.0,100,0.04,,,0.41,WeatherCatV1.15B25,2013-04-16 13:38:00,
2013-04-16 09:43:00,47.0,47.0,30.08,NNW,345,2.0,3.0,100,0.04,,,0.41,WeatherCatV1.15B25,2013-04-16 13:43:00,
2013-04-16 09:48:00,47.0,47.0,30.08,NNW,345,2.0,3.0,100,0.00,,,0.41,WeatherCatV1.15B25,2013-04-16 13:48:00,
2013-04-16 09:53:00,46.8,46.8,30.08,NNW,345,0.0,4.0,100,0.00,,,0.41,WeatherCatV1.15B25,2013-04-16 13:53:00,
2013-04-16 09:58:00,46.7,46.7,30.08,NNW,345,4.0,4.0,100,0.00,,,0.41,WeatherCatV1.15B25,2013-04-16 13:58:00,
2013-04-16 10:03:00,46.7,46.7,30.07,NNW,345,1.0,4.0,100,0.00,,,0.41,WeatherCatV1.15B25,2013-04-16 14:03:00,
2013-04-16 10:08:00,46.5,46.5,30.07,NNW,343,2.0,4.0,100,0.00,,,0.41,WeatherCatV1.15B25,2013-04-16 14:08:00,
2013-04-16 10:13:00,46.4,46.4,30.07,NNW,343,0.0,3.0,100,0.00,,,0.41,WeatherCatV1.15B25,2013-04-16 14:13:00,
2013-04-16 10:18:00,46.5,46.5,30.05,NNW,343,3.0,4.0,100,0.00,,,0.41,WeatherCatV1.15B25,2013-04-16 14:18:00,
2013-04-16 10:23:00,46.7,46.7,30.05,NNW,343,3.0,5.0,100,0.00,,,0.41,WeatherCatV1.15B25,2013-04-16 14:23:00,
2013-04-16 10:28:00,46.7,46.7,30.05,NW,323,2.0,6.0,100,0.00,,,0.41,WeatherCatV1.15B25,2013-04-16 14:28:00,
2013-04-16 10:33:00,46.7,46.7,30.05,NNW,346,4.0,4.0,100,0.00,,,0.41,WeatherCatV1.15B25,2013-04-16 14:33:00,
2013-04-16 10:38:00,46.8,46.8,30.05,NNW,336,3.0,3.0,100,0.00,,,0.41,WeatherCatV1.15B25,2013-04-16 14:38:00,
2013-04-16 10:43:00,46.8,46.5,30.05,North,354,4.0,6.0,99,0.00,,,0.41,WeatherCatV1.15B25,2013-04-16 14:43:00,
2013-04-16 10:48:00,46.8,46.5,30.05,North,353,2.0,6.0,99,0.00,,,0.41,WeatherCatV1.15B25,2013-04-16 14:48:00,
2013-04-16 10:53:00,47.0,46.7,30.05,NNE,22,3.0,6.0,99,0.00,,,0.41,WeatherCatV1.15B25,2013-04-16 14:53:00,
2013-04-16 10:58:00,47.1,46.6,30.05,NNE,21,2.0,6.0,98,0.00,,,0.41,WeatherCatV1.15B25,2013-04-16 14:58:00,
2013-04-16 11:03:00,47.4,46.3,30.05,North,353,1.0,2.0,96,0.00,,,0.41,WeatherCatV1.15B25,2013-04-16 15:03:00,
2013-04-16 11:08:00,47.3,45.1,30.05,NNE,32,2.0,3.0,92,0.00,,,0.41,WeatherCatV1.15B25,2013-04-16 15:08:00,
2013-04-16 11:13:00,48.0,46.1,30.05,NNE,32,0.0,0.0,93,0.00,,,0.41,WeatherCatV1.15B25,2013-04-16 15:13:00,
2013-04-16 11:18:00,48.2,45.1,30.06,NNE,32,0.0,5.0,89,0.00,,,0.41,WeatherCatV1.15B25,2013-04-16 15:18:00,
2013-04-16 11:23:00,48.5,45.1,30.06,NE,44,0.0,2.0,88,0.00,,,0.41,WeatherCatV1.15B25,2013-04-16 15:23:00,
2013-04-16 11:28:00,48.9,45.5,30.06,NE,43,4.0,4.0,88,0.00,,,0.41,WeatherCatV1.15B25,2013-04-16 15:28:00,
2013-04-16 11:33:00,49.4,45.7,30.06,NE,43,2.0,3.0,87,0.00,,,0.41,WeatherCatV1.15B25,2013-04-16 15:33:00,
2013-04-16 11:38:00,49.2,44.9,30.06,NNE,17,1.0,4.0,85,0.00,,,0.41,WeatherCatV1.15B25,2013-04-16 15:38:00,
2013-04-16 11:43:00,49.8,46.7,30.06,NNE,15,0.0,2.0,89,0.00,,,0.41,WeatherCatV1.15B25,2013-04-16 15:43:00,
2013-04-16 11:48:00,49.8,45.8,30.06,NNE,15,1.0,1.0,86,0.00,,,0.41,WeatherCatV1.15B25,2013-04-16 15:48:00,
2013-04-16 11:53:00,50.5,46.8,30.06,NNE,15,0.0,1.0,87,0.00,,,0.41,WeatherCatV1.15B25,2013-04-16 15:53:00,
2013-04-16 11:58:00,52.3,49.5,30.06,NNE,15,0.0,3.0,90,0.00,,,0.41,WeatherCatV1.15B25,2013-04-16 15:58:00,
2013-04-16 12:03:00,52.9,47.6,30.07,North,1,0.0,1.0,82,0.00,,,0.41,WeatherCatV1.15B25,2013-04-16 16:03:00,
2013-04-16 12:08:00,52.3,47.3,30.07,North,1,0.0,1.0,83,0.00,,,0.41,WeatherCatV1.15B25,2013-04-16 16:08:00,
2013-04-16 12:13:00,52.3,45.6,30.07,North,1,0.0,2.0,78,0.00,,,0.41,WeatherCatV1.15B25,2013-04-16 16:13:00,
2013-04-16 12:18:00,52.9,46.9,30.07,WSW,249,1.0,4.0,80,0.00,,,0.41,WeatherCatV1.15B25,2013-04-16 16:18:00,
2013-04-16 12:23:00,53.1,46.4,30.07,WSW,252,0.0,3.0,78,0.00,,,0.41,WeatherCatV1.15B25,2013-04-16 16:23:00,
2013-04-16 12:28:00,53.5,48.8,30.07,WNW,295,2.0,3.0,84,0.00,,,0.41,WeatherCatV1.15B25,2013-04-16 16:28:00,
2013-04-16 12:33:00,53.9,47.5,30.08,West,272,3.0,3.0,79,0.00,,,0.41,WeatherCatV1.15B25,2013-04-16 16:33:00,
2013-04-16 12:38:00,53.9,49.2,30.08,NW,307,0.0,3.0,84,0.00,,,0.41,WeatherCatV1.15B25,2013-04-16 16:38:00,
2013-04-16 12:43:00,53.6,47.9,30.08,WSW,250,1.0,5.0,81,0.00,,,0.41,WeatherCatV1.15B25,2013-04-16 16:43:00,
2013-04-16 12:48:00,53.8,47.8,30.08,WSW,250,0.0,1.0,80,0.00,,,0.41,WeatherCatV1.15B25,2013-04-16 16:48:00,
2013-04-16 12:53:00,54.4,49.3,30.08,WSW,252,0.0,1.0,83,0.00,,,0.41,WeatherCatV1.15B25,2013-04-16 16:53:00,
2013-04-16 12:58:00,55.3,49.2,30.08,West,275,1.0,1.0,80,0.00,,,0.41,WeatherCatV1.15B25,2013-04-16 16:58:00,
2013-04-16 13:03:00,55.1,47.3,30.07,WSW,243,3.0,4.0,75,0.00,,,0.41,WeatherCatV1.15B25,2013-04-16 17:03:00,
2013-04-16 13:08:00,54.7,48.7,30.07,NE,39,2.0,2.0,80,0.00,,,0.41,WeatherCatV1.15B25,2013-04-16 17:08:00,
2013-04-16 13:13:00,56.0,50.6,30.07,NNE,18,0.0,3.0,82,0.00,,,0.41,WeatherCatV1.15B25,2013-04-16 17:13:00,
2013-04-16 13:18:00,56.3,49.9,30.07,North,8,0.0,3.0,79,0.00,,,0.41,WeatherCatV1.15B25,2013-04-16 17:18:00,
2013-04-16 13:23:00,56.0,50.6,30.07,North,0,0.0,6.0,82,0.00,,,0.41,WeatherCatV1.15B25,2013-04-16 17:23:00,
2013-04-16 13:28:00,55.9,50.5,30.07,North,0,0.0,3.0,82,0.00,,,0.41,WeatherCatV1.15B25,2013-04-16 17:28:00,
2013-04-16 13:33:00,55.7,49.6,30.08,North,0,0.0,1.0,80,0.00,,,0.41,WeatherCatV1.15B25,2013-04-16 17:33:00,
2013-04-16 13:38:00,55.7,50.3,30.08,North,0,0.0,3.0,82,0.00,,,0.41,WeatherCatV1.15B25,2013-04-16 17:38:00,
2013-04-16 13:43:00,55.4,48.7,30.08,North,359,2.0,5.0,78,0.00,,,0.41,WeatherCatV1.15B25,2013-04-16 17:43:00,
2013-04-16 13:48:00,55.4,49.3,30.10,North,359,5.0,5.0,80,0.00,,,0.41,WeatherCatV1.15B25,2013-04-16 17:48:00,
2013-04-16 13:53:00,55.1,49.7,30.10,North,359,1.0,3.0,82,0.00,,,0.41,WeatherCatV1.15B25,2013-04-16 17:53:00,
2013-04-16 13:58:00,54.4,48.7,30.10,WNW,292,2.0,6.0,81,0.00,,,0.41,WeatherCatV1.15B25,2013-04-16 17:58:00,
2013-04-16 14:03:00,53.9,49.2,30.12,WNW,297,4.0,6.0,84,0.00,,,0.41,WeatherCatV1.15B25,2013-04-16 18:03:00,
2013-04-16 14:08:00,53.6,48.9,30.12,WNW,298,2.0,2.0,84,0.00,,,0.41,WeatherCatV1.15B25,2013-04-16 18:08:00,
2013-04-16 14:13:00,53.3,47.6,30.12,WNW,298,4.0,4.0,81,0.00,,,0.41,WeatherCatV1.15B25,2013-04-16 18:13:00,
2013-04-16 14:18:00,53.1,47.8,30.12,NNW,348,0.0,4.0,82,0.00,,,0.41,WeatherCatV1.15B25,2013-04-16 18:18:00,
2013-04-16 14:23:00,52.9,47.9,30.12,NW,320,2.0,4.0,83,0.00,,,0.41,WeatherCatV1.15B25,2013-04-16 18:23:00,
2013-04-16 14:28:00,52.5,48.4,30.12,NW,313,2.0,3.0,86,0.00,,,0.42,WeatherCatV1.15B25,2013-04-16 18:28:00,
2013-04-16 14:33:00,52.0,48.6,30.13,West,276,2.0,3.0,88,0.00,,,0.42,WeatherCatV1.15B25,2013-04-16 18:33:00,
2013-04-16 14:38:00,51.6,48.8,30.13,West,276,0.0,1.0,90,0.10,,,0.43,WeatherCatV1.15B25,2013-04-16 18:38:00,
2013-04-16 14:43:00,51.1,48.6,30.13,West,276,0.0,0.0,91,0.17,,,0.45,WeatherCatV1.15B25,2013-04-16 18:43:00,
2013-04-16 14:48:00,50.8,48.6,30.12,West,276,0.0,0.0,92,0.15,,,0.46,WeatherCatV1.15B25,2013-04-16 18:48:00,
2013-04-16 14:53:00,50.7,48.7,30.12,West,276,1.0,1.0,93,0.15,,,0.47,WeatherCatV1.15B25,2013-04-16 18:53:00,
2013-04-16 14:58:00,50.4,48.7,30.12,West,276,0.0,3.0,94,0.14,,,0.48,WeatherCatV1.15B25,2013-04-16 18:58:00,
2013-04-16 15:03:00,50.2,48.5,30.10,West,276,0.0,0.0,94,0.22,,,0.50,WeatherCatV1.15B25,2013-04-16 19:03:00,
2013-04-16 15:08:00,50.1,48.4,30.10,NE,39,2.0,4.0,94,0.14,,,0.51,WeatherCatV1.15B25,2013-04-16 19:08:00,
2013-04-16 15:13:00,49.9,48.2,30.10,NNE,30,0.0,4.0,94,0.09,,,0.52,WeatherCatV1.15B25,2013-04-16 19:13:00,
2013-04-16 15:18:00,49.9,48.2,30.08,NNE,33,1.0,6.0,94,0.08,,,0.52,WeatherCatV1.15B25,2013-04-16 19:18:00,
2013-04-16 15:23:00,50.2,48.5,30.08,NNE,32,1.0,3.0,94,0.05,,,0.52,WeatherCatV1.15B25,2013-04-16 19:23:00,
2013-04-16 15:28:00,50.5,49.4,30.08,NW,320,3.0,3.0,96,0.00,,,0.52,WeatherCatV1.15B25,2013-04-16 19:28:00,
2013-04-16 15:33:00,50.7,49.6,30.12,NNW,339,4.0,6.0,96,0.00,,,0.52,WeatherCatV1.15B25,2013-04-16 19:33:00,
2013-04-16 15:38:00,50.5,49.1,30.12,NNW,342,3.0,5.0,95,0.00,,,0.52,WeatherCatV1.15B25,2013-04-16 19:38:00,
2013-04-16 15:43:00,50.2,48.5,30.12,NW,326,2.0,3.0,94,0.00,,,0.52,WeatherCatV1.15B25,2013-04-16 19:43:00,
2013-04-16 15:48:00,50.1,48.4,30.12,NW,326,0.0,2.0,94,0.00,,,0.52,WeatherCatV1.15B25,2013-04-16 19:48:00,
2013-04-16 15:53:00,49.9,48.2,30.12,NW,326,0.0,2.0,94,0.00,,,0.53,WeatherCatV1.15B25,2013-04-16 19:53:00,
2013-04-16 15:58:00,49.8,48.4,30.12,NW,326,0.0,0.0,95,0.00,,,0.53,WeatherCatV1.15B25,2013-04-16 19:58:00,
2013-04-16 16:03:00,49.6,47.9,30.12,NNW,338,0.0,0.0,94,0.00,,,0.53,WeatherCatV1.15B25,2013-04-16 20:03:00,
2013-04-16 16:08:00,49.6,47.9,30.12,NNW,338,2.0,4.0,94,0.04,,,0.54,WeatherCatV1.15B25,2013-04-16 20:08:00,
2013-04-16 16:13:00,49.6,47.9,30.12,NNW,338,0.0,1.0,94,0.04,,,0.54,WeatherCatV1.15B25,2013-04-16 20:13:00,
2013-04-16 16:18:00,49.6,47.9,30.11,NNW,338,0.0,0.0,94,0.04,,,0.54,WeatherCatV1.15B25,2013-04-16 20:18:00,
2013-04-16 16:23:00,49.6,47.9,30.11,NNW,338,0.0,1.0,94,0.04,,,0.55,WeatherCatV1.15B25,2013-04-16 20:23:00,
2013-04-16 16:28:00,49.8,48.1,30.11,NNW,338,0.0,0.0,94,0.04,,,0.55,WeatherCatV1.15B25,2013-04-16 20:28:00,
2013-04-16 16:33:00,49.9,48.0,30.10,NE,47,5.0,6.0,93,0.04,,,0.55,WeatherCatV1.15B25,2013-04-16 20:33:00,
2013-04-16 16:38:00,49.9,48.5,30.10,NNE,25,0.0,2.0,95,0.00,,,0.55,WeatherCatV1.15B25,2013-04-16 20:38:00,
2013-04-16 16:43:00,50.1,48.4,30.10,NE,37,5.0,5.0,94,0.00,,,0.55,WeatherCatV1.15B25,2013-04-16 20:43:00,
2013-04-16 16:48:00,50.4,48.7,30.10,North,8,0.0,2.0,94,0.00,,,0.55,WeatherCatV1.15B25,2013-04-16 20:48:00,
2013-04-16 16:53:00,50.5,48.8,30.10,North,8,0.0,2.0,94,0.00,,,0.55,WeatherCatV1.15B25,2013-04-16 20:53:00,
2013-04-16 16:58:00,50.7,49.0,30.10,North,8,0.0,0.0,94,0.00,,,0.55,WeatherCatV1.15B25,2013-04-16 20:58:00,
2013-04-16 17:03:00,50.8,49.1,30.11,North,8,1.0,2.0,94,0.00,,,0.55,WeatherCatV1.15B25,2013-04-16 21:03:00,
2013-04-16 17:08:00,50.8,48.8,30.11,NNW,331,0.0,0.0,93,0.00,,,0.55,WeatherCatV1.15B25,2013-04-16 21:08:00,
2013-04-16 17:13:00,50.8,48.8,30.11,NNW,331,2.0,3.0,93,0.00,,,0.55,WeatherCatV1.15B25,2013-04-16 21:13:00,
2013-04-16 17:18:00,50.8,48.3,30.13,NNE,14,0.0,0.0,91,0.00,,,0.55,WeatherCatV1.15B25,2013-04-16 21:18:00,
2013-04-16 17:23:00,51.0,49.3,30.13,NNE,14,0.0,0.0,94,0.00,,,0.55,WeatherCatV1.15B25,2013-04-16 21:23:00,
2013-04-16 17:28:00,51.1,49.4,30.13,NNE,14,0.0,0.0,94,0.00,,,0.55,WeatherCatV1.15B25,2013-04-16 21:28:00,
2013-04-16 17:33:00,51.0,49.3,30.15,NNE,14,0.0,0.0,94,0.00,,,0.55,WeatherCatV1.15B25,2013-04-16 21:33:00,
2013-04-16 17:38:00,50.8,48.8,30.15,NNE,14,0.0,0.0,93,0.00,,,0.55,WeatherCatV1.15B25,2013-04-16 21:38:00,
2013-04-16 17:43:00,50.8,48.8,30.15,NNE,14,0.0,0.0,93,0.00,,,0.55,WeatherCatV1.15B25,2013-04-16 21:43:00,
2013-04-16 17:48:00,51.0,48.8,30.15,North,4,0.0,2.0,92,0.00,,,0.55,WeatherCatV1.15B25,2013-04-16 21:48:00,
2013-04-16 17:53:00,51.1,48.3,30.15,North,4,0.0,0.0,90,0.00,,,0.55,WeatherCatV1.15B25,2013-04-16 21:53:00,
2013-04-16 17:58:00,51.3,47.3,30.15,North,2,2.0,2.0,86,0.00,,,0.55,WeatherCatV1.15B25,2013-04-16 21:58:00,
2013-04-16 18:03:00,51.3,45.3,30.14,NNE,20,0.0,6.0,80,0.00,,,0.55,WeatherCatV1.15B25,2013-04-16 22:03:00,
2013-04-16 18:08:00,51.4,45.8,30.14,NNE,20,0.0,4.0,81,0.00,,,0.55,WeatherCatV1.15B25,2013-04-16 22:08:00,
2013-04-16 18:13:00,51.4,44.8,30.14,North,359,0.0,5.0,78,0.00,,,0.55,WeatherCatV1.15B25,2013-04-16 22:13:00,
2013-04-16 18:18:00,51.6,45.3,30.13,NNE,15,2.0,2.0,79,0.00,,,0.55,WeatherCatV1.15B25,2013-04-16 22:18:00,
2013-04-16 18:23:00,51.7,44.7,30.13,NE,55,3.0,3.0,77,0.00,,,0.55,WeatherCatV1.15B25,2013-04-16 22:23:00,
2013-04-16 18:28:00,51.7,44.0,30.13,NNE,20,2.0,5.0,75,0.00,,,0.55,WeatherCatV1.15B25,2013-04-16 22:28:00,
2013-04-16 18:33:00,51.9,45.3,30.13,NNE,18,2.0,5.0,78,0.00,,,0.55,WeatherCatV1.15B25,2013-04-16 22:33:00,
2013-04-16 18:38:00,51.9,45.3,30.13,North,9,0.0,0.0,78,0.00,,,0.55,WeatherCatV1.15B25,2013-04-16 22:38:00,
2013-04-16 18:43:00,51.7,46.4,30.13,North,9,3.0,3.0,82,0.00,,,0.55,WeatherCatV1.15B25,2013-04-16 22:43:00,
2013-04-16 18:48:00,51.9,44.9,30.13,North,9,1.0,2.0,77,0.00,,,0.55,WeatherCatV1.15B25,2013-04-16 22:48:00,
2013-04-16 18:53:00,51.9,46.3,30.13,North,9,0.0,2.0,81,0.00,,,0.55,WeatherCatV1.15B25,2013-04-16 22:53:00,
2013-04-16 18:58:00,52.0,44.3,30.13,North,9,0.0,0.0,75,0.00,,,0.55,WeatherCatV1.15B25,2013-04-16 22:58:00,
2013-04-16 19:03:00,52.2,45.5,30.13,NNE,23,0.0,4.0,78,0.00,,,0.55,WeatherCatV1.15B25,2013-04-16 23:03:00,
2013-04-16 19:08:00,52.2,45.2,30.13,NNE,23,0.0,1.0,77,0.00,,,0.55,WeatherCatV1.15B25,2013-04-16 23:08:00,
2013-04-16 19:13:00,52.3,45.0,30.13,NNE,23,1.0,4.0,76,0.00,,,0.55,WeatherCatV1.15B25,2013-04-16 23:13:00,
2013-04-16 19:18:00,52.3,45.3,30.13,NNE,23,0.0,2.0,77,0.00,,,0.55,WeatherCatV1.15B25,2013-04-16 23:18:00,
2013-04-16 19:23:00,52.3,45.0,30.13,NNE,23,0.0,2.0,76,0.00,,,0.55,WeatherCatV1.15B25,2013-04-16 23:23:00,
2013-04-16 19:28:00,52.5,46.5,30.13,NNE,23,0.0,0.0,80,0.00,,,0.55,WeatherCatV1.15B25,2013-04-16 23:28:00,
2013-04-16 19:33:00,52.3,44.6,30.14,NNE,23,0.0,3.0,75,0.00,,,0.55,WeatherCatV1.15B25,2013-04-16 23:33:00,
2013-04-16 19:43:00,52.5,45.5,30.14,NNE,23,0.0,0.0,77,0.00,,,0.55,WeatherCatV1.15B25,2013-04-16 23:43:00,
2013-04-16 19:48:00,52.6,44.9,30.14,NNE,23,1.0,2.0,75,0.00,,,0.55,WeatherCatV1.15B25,2013-04-16 23:48:00,
2013-04-16 19:53:00,52.5,42.6,30.14,NNE,15,2.0,7.0,69,0.00,,,0.55,WeatherCatV1.15B25,2013-04-16 23:53:00,
2013-04-16 19:58:00,52.5,41.1,30.14,NNE,20,3.0,7.0,65,0.00,,,0.55,WeatherCatV1.15B25,2013-04-16 23:58:00,
2013-04-16 20:03:00,52.3,40.9,30.15,NNE,20,0.0,4.0,65,0.00,,,0.55,WeatherCatV1.15B25,2013-04-17 00:03:00,
2013-04-16 20:08:00,52.2,42.0,30.15,NNE,20,0.0,1.0,68,0.00,,,0.55,WeatherCatV1.15B25,2013-04-17 00:08:00,
2013-04-16 20:13:00,52.0,41.4,30.15,NNE,13,0.0,5.0,67,0.00,,,0.55,WeatherCatV1.15B25,2013-04-17 00:13:00,
2013-04-16 20:18:00,51.9,42.4,30.16,NNE,13,0.0,0.0,70,0.00,,,0.55,WeatherCatV1.15B25,2013-04-17 00:18:00,
2013-04-16 20:23:00,51.7,41.9,30.16,NNE,13,1.0,1.0,69,0.00,,,0.55,WeatherCatV1.15B25,2013-04-17 00:23:00,
2013-04-16 20:28:00,51.6,41.4,30.16,NNE,13,0.0,2.0,68,0.00,,,0.55,WeatherCatV1.15B25,2013-04-17 00:28:00,
2013-04-16 20:33:00,51.6,43.6,30.16,NNE,13,0.0,0.0,74,0.00,,,0.55,WeatherCatV1.15B25,2013-04-17 00:33:00,
2013-04-16 20:38:00,51.3,43.3,30.16,NNE,13,0.0,2.0,74,0.00,,,0.55,WeatherCatV1.15B25,2013-04-17 00:38:00,
2013-04-16 20:43:00,51.1,43.1,30.16,NNE,13,0.0,0.0,74,0.00,,,0.55,WeatherCatV1.15B25,2013-04-17 00:43:00,
2013-04-16 20:48:00,51.0,44.0,30.15,NNE,13,0.0,0.0,77,0.00,,,0.55,WeatherCatV1.15B25,2013-04-17 00:48:00,
2013-04-16 20:53:00,50.8,44.9,30.15,NNE,13,0.0,0.0,80,0.00,,,0.55,WeatherCatV1.15B25,2013-04-17 00:53:00,
2013-04-16 20:58:00,50.7,45.4,30.15,NNE,13,0.0,0.0,82,0.00,,,0.55,WeatherCatV1.15B25,2013-04-17 00:58:00,
2013-04-16 21:03:00,50.2,44.6,30.14,NNE,13,0.0,0.0,81,0.00,,,0.55,WeatherCatV1.15B25,2013-04-17 01:03:00,
2013-04-16 21:08:00,49.8,43.9,30.14,NNE,13,0.0,0.0,80,0.00,,,0.55,WeatherCatV1.15B25,2013-04-17 01:08:00,
2013-04-16 21:13:00,49.5,43.3,30.14,NNE,13,0.0,0.0,79,0.00,,,0.55,WeatherCatV1.15B25,2013-04-17 01:13:00,
2013-04-16 21:18:00,49.5,43.6,30.16,NNE,13,0.0,1.0,80,0.00,,,0.55,WeatherCatV1.15B25,2013-04-17 01:18:00,
2013-04-16 21:23:00,49.5,43.6,30.16,NNE,13,0.0,1.0,80,0.00,,,0.55,WeatherCatV1.15B25,2013-04-17 01:23:00,
2013-04-16 21:28:00,49.4,42.5,30.16,NNE,13,0.0,3.0,77,0.00,,,0.55,WeatherCatV1.15B25,2013-04-17 01:28:00,
2013-04-16 21:33:00,49.5,41.2,30.15,North,6,0.0,5.0,73,0.00,,,0.55,WeatherCatV1.15B25,2013-04-17 01:33:00,
2013-04-16 21:38:00,49.5,41.2,30.15,NNE,23,1.0,4.0,73,0.00,,,0.55,WeatherCatV1.15B25,2013-04-17 01:38:00,
2013-04-16 21:43:00,49.6,40.9,30.15,NE,49,1.0,4.0,72,0.00,,,0.55,WeatherCatV1.15B25,2013-04-17 01:43:00,
2013-04-16 21:48:00,49.6,40.6,30.16,NNE,15,2.0,5.0,71,0.00,,,0.55,WeatherCatV1.15B25,2013-04-17 01:48:00,
2013-04-16 21:53:00,49.8,40.4,30.16,NE,34,2.0,9.0,70,0.00,,,0.55,WeatherCatV1.15B25,2013-04-17 01:53:00,
2013-04-16 21:58:00,49.6,39.5,30.16,NNE,17,1.0,2.0,68,0.00,,,0.55,WeatherCatV1.15B25,2013-04-17 01:58:00,
2013-04-16 22:03:00,49.5,39.0,30.17,NNE,23,1.0,7.0,67,0.00,,,0.55,WeatherCatV1.15B25,2013-04-17 02:03:00,
2013-04-16 22:08:00,49.4,39.3,30.17,NNE,15,2.0,5.0,68,0.00,,,0.55,WeatherCatV1.15B25,2013-04-17 02:08:00,
2013-04-16 22:13:00,49.1,39.0,30.17,NNE,31,0.0,4.0,68,0.00,,,0.55,WeatherCatV1.15B25,2013-04-17 02:13:00,
2013-04-16 22:18:00,49.1,40.1,30.18,NNE,27,0.0,4.0,71,0.73,,,0.58,WeatherCatV1.15B25,2013-04-17 02:18:00,
2013-04-16 22:23:00,48.5,42.0,30.18,NNE,27,0.0,1.0,78,0.19,,,0.60,WeatherCatV1.15B25,2013-04-17 02:23:00,
2013-04-16 22:28:00,47.6,43.0,30.18,NNE,27,0.0,1.0,84,0.16,,,0.61,WeatherCatV1.15B25,2013-04-17 02:28:00,
2013-04-16 22:33:00,47.0,43.6,30.19,SE,124,0.0,0.0,88,0.15,,,0.62,WeatherCatV1.15B25,2013-04-17 02:33:00,
2013-04-16 22:38:00,46.2,43.7,30.19,SE,124,0.0,3.0,91,0.57,,,0.65,WeatherCatV1.15B25,2013-04-17 02:38:00,
2013-04-16 22:43:00,45.8,43.9,30.19,SE,124,0.0,0.0,93,0.12,,,0.66,WeatherCatV1.15B25,2013-04-17 02:43:00,
2013-04-16 22:48:00,45.7,44.1,30.20,SE,124,0.0,0.0,94,0.11,,,0.66,WeatherCatV1.15B25,2013-04-17 02:48:00,
2013-04-16 22:53:00,45.5,44.2,30.20,SE,124,0.0,0.0,95,0.06,,,0.66,WeatherCatV1.15B25,2013-04-17 02:53:00,
2013-04-16 22:58:00,45.5,44.4,30.20,SE,124,1.0,2.0,96,0.04,,,0.66,WeatherCatV1.15B25,2013-04-17 02:58:00,
2013-04-16 23:03:00,45.2,44.1,30.20,SE,124,0.0,0.0,96,0.00,,,0.66,WeatherCatV1.15B25,2013-04-17 03:03:00,
2013-04-16 23:08:00,45.4,44.3,30.20,SE,124,1.0,2.0,96,0.00,,,0.66,WeatherCatV1.15B25,2013-04-17 03:08:00,
2013-04-16 23:13:00,45.4,44.6,30.20,SE,124,0.0,0.0,97,0.00,,,0.66,WeatherCatV1.15B25,2013-04-17 03:13:00,
2013-04-16 23:18:00,45.5,44.7,30.20,SE,124,0.0,1.0,97,0.00,,,0.66,WeatherCatV1.15B25,2013-04-17 03:18:00,
2013-04-16 23:23:00,45.5,44.7,30.20,SE,124,1.0,1.0,97,0.00,,,0.66,WeatherCatV1.15B25,2013-04-17 03:23:00,
2013-04-16 23:28:00,45.5,44.7,30.20,NE,52,0.0,2.0,97,0.74,,,0.72,WeatherCatV1.15B25,2013-04-17 03:28:00,
2013-04-16 23:33:00,45.4,44.3,30.18,NE,52,0.0,0.0,96,0.15,,,0.73,WeatherCatV1.15B25,2013-04-17 03:33:00,
2013-04-16 23:38:00,45.2,44.1,30.18,NE,52,0.0,0.0,96,0.07,,,0.73,WeatherCatV1.15B25,2013-04-17 03:38:00,
2013-04-16 23:43:00,45.1,44.0,30.18,NE,52,1.0,3.0,96,0.04,,,0.73,WeatherCatV1.15B25,2013-04-17 03:43:00,
2013-04-16 23:48:00,44.9,43.3,30.19,ENE,61,2.0,5.0,94,0.00,,,0.73,WeatherCatV1.15B25,2013-04-17 03:48:00,
2013-04-16 23:53:00,44.9,42.7,30.19,ENE,59,1.0,3.0,92,0.00,,,0.73,WeatherCatV1.15B25,2013-04-17 03:53:00,
2013-04-16 23:58:00,44.9,42.7,30.19,ENE,59,0.0,3.0,92,0.00,,,0.73,WeatherCatV1.15B25,2013-04-17 03:58:00,